Location: Plainartige
(45.6866°N, 1.7993°E)
Time: 21:38:53
(UTC+00:00)

POLYITAN 1 - Pass Details

Date: 03 July 2022
Orbit: 586 x 605 km, 98.0° (Epoch: 16 August)

Event Time Altitude Azimuth Distance (km) Brightness Sun altitude
Rises 03:14:00 0° 354° (N) 2,861 ? -8.1°
Reaches altitude 10° 03:17:15 10° 327° (NNW) 1,956 ? -7.7°
Maximum altitude 03:19:10 13° 300° (WNW) 1,766 ? -7.4°
Drops below altitude 10° 03:21:06 10° 273° (W) 1,954 ? -7.2°
Enters shadow 03:22:45 - 256° (WSW) 2,353 ? -7.0°
